Snowfall_Accumulation
0.0 0.0 0.0 0.0 0.0 0.0 0.0 0.0 0.0 0.0 0.0 0.0 0.0 0.0 0.0 0.0 0.0 0.0 0.0 0.0 0.0 0.0 0.0 0.0 0.0 0.0 0.0 0.0 0.0 0.0 0.0 0.0 0.0 0.0 0.0 0.0 0.0 0.0 0.0 0.0 0.0 0.0 0.0
0.0 0.0 0.0 0.0 0.0 0.0 0.0 0.0 0.0 0.0 0.0 0.0 0.0 0.0 0.0 0.0 0.0 0.0 0.0 0.0 0.0 0.0 0.0 0.0 0.0 0.0 0.0 0.0 0.0 0.0 0.0 0.0 0.0 0.0 0.0 0.3 0.1 0.0 0.0 0.0 0.0 0.0 0.0
0.0 0.0 0.0 0.0 0.0 0.0 0.0 0.0 0.0 0.0 0.0 0.0 0.0 0.0 0.0 0.0 0.0 0.0 0.0 0.0 0.0 0.0 0.0 0.0 0.0 0.0 0.0 0.0 0.0 0.0 0.0 0.0 0.0 0.1 0.2 0.2 0.2 0.1 0.1 0.1 0.0 0.0 0.0
0.0 0.0 0.0 0.0 0.0 0.0 0.0 0.0 0.0 0.0 0.0 0.0 0.0 0.0 0.0 0.0 0.0 0.0 0.0 0.0 0.0 0.0 0.0 0.0 0.0 0.0 0.0 0.0 0.0 0.0 0.0 0.1 0.1 0.2 0.2 0.2 0.3 0.4 0.4 0.5 0.8 0.5 0.5
0.0 0.0 0.0 0.0 0.0 0.0 0.0 0.0 0.0 0.0 0.0 0.0 0.0 0.0 0.0 0.0 0.0 0.0 0.0 0.0 0.0 0.0 0.0 0.0 0.0 0.0 nan nan 0.1 0.0 0.0 0.1 0.3 0.4 0.4 0.4 0.4 0.6 0.8 0.7 1.3 0.9 0.7
0.0 0.0 0.0 0.0 0.0 0.0 0.0 0.0 0.0 0.0 0.0 0.0 0.0 0.0 0.0 0.0 nan nan 0.0 0.0 0.0 0.0 0.0 0.0 0.0 0.0 0.0 nan nan nan nan 0.0 0.1 0.9 0.6 0.4 0.1 0.7 1.1 1.6 2.0 3.0 3.4
0.0 0.0 0.1 0.1 0.1 0.0 0.0 0.0 0.0 0.0 0.1 0.1 0.2 0.1 0.1 0.1 nan nan nan 0.0 0.0 0.0 0.0 0.0 0.0 0.0 0.1 0.0 nan nan nan nan nan 0.1 0.2 0.3 0.7 0.4 0.8 1.6 1.3 2.4 1.7
0.1 0.1 0.2 0.2 0.4 0.6 0.6 0.5 0.4 0.2 0.2 0.2 0.1 0.1 0.0 0.0 nan nan nan 0.0 0.0 0.0 0.0 0.0 0.0 0.1 0.0 0.1 0.1 0.1 0.1 0.1 0.1 0.0 0.1 0.1 0.1 0.1 0.1 0.3 0.7 1.1 1.9
0.5 0.7 0.7 0.6 0.6 0.5 0.6 0.5 0.6 0.6 0.4 0.2 0.1 0.3 0.3 0.2 nan nan 0.0 0.1 0.1 0.1 0.1 0.0 0.0 0.1 nan nan 0.2 0.9 1.4 0.8 nan nan nan nan nan nan nan 2.1 7.7 9.8 6.1
0.7 0.7 0.6 0.6 0.9 0.9 0.8 1.0 1.1 0.8 0.8 1.5 0.5 0.6 0.2 0.5 nan nan nan 1.0 0.7 1.1 0.2 0.1 0.6 0.1 nan nan 0.5 1.5 3.7 1.5 1.2 2.0 1.0 0.2 nan nan nan 0.2 2.1 8.7 6.5
1.8 1.6 1.5 1.4 1.6 1.1 1.1 1.0 1.4 1.5 1.1 1.6 1.9 1.2 1.1 0.4 0.2 nan nan 0.5 1.6 2.8 2.7 2.1 1.3 nan nan nan nan 1.8 2.7 1.2 2.9 2.7 2.6 2.6 2.0 1.7 1.9 1.3 0.7 2.0 6.0
2.1 2.3 2.5 2.5 2.0 1.7 2.8 2.2 2.9 2.5 2.9 2.9 2.8 2.6 2.2 0.9 nan nan nan nan nan 4.5 2.7 2.1 1.6 nan nan nan 1.3 nan nan 1.7 4.7 5.8 6.7 6.3 4.7 3.9 2.6 1.9 0.7 0.7 0.8
4.3 5.4 5.0 4.1 3.3 2.8 3.8 3.2 4.5 3.2 4.6 3.0 3.9 3.7 2.9 2.5 2.0 nan nan nan nan 3.1 2.1 2.1 nan nan nan nan nan nan 1.6 4.7 6.0 10.2 7.9 5.0 3.6 2.9 1.6 2.4 1.5 1.8 1.5
6.7 4.3 3.5 4.1 3.2 3.5 3.7 3.9 5.6 5.2 4.4 4.7 5.7 5.9 4.2 4.3 3.4 2.8 3.6 2.2 2.5 3.7 nan 3.0 nan 3.2 nan nan 3.3 3.7 5.5 6.3 8.0 9.4 8.4 5.0 3.5 4.9 6.5 4.9 7.6 7.0 10.9
5.9 4.3 4.5 4.9 5.1 4.1 3.4 4.5 4.9 2.9 5.9 10.0 10.5 7.2 10.9 11.5 8.4 3.7 7.4 9.5 7.5 7.2 6.2 10.4 9.5 7.1 7.5 7.1 8.6 7.7 6.7 7.6 9.1 8.9 10.1 9.4 9.2 9.2 9.3 7.6 8.6 11.0 14.3
4.4 5.7 4.5 4.6 4.2 3.9 4.9 5.1 nan nan nan nan nan 7.6 8.9 nan nan nan nan nan nan nan 17.9 20.8 13.7 12.3 10.9 11.1 12.5 11.8 10.6 9.1 10.3 11.5 11.9 11.3 12.4 11.4 12.1 12.4 11.7 14.1 16.1
6.6 5.2 6.2 5.1 6.1 7.2 7.9 9.3 10.2 7.8 nan nan nan nan nan nan nan nan nan nan nan nan 28.8 19.4 18.9 14.9 14.6 12.8 13.9 13.3 12.8 11.8 11.1 13.2 13.0 14.2 14.9 15.5 15.6 15.1 13.2 12.6 16.1
7.9 2.8 8.9 8.9 8.9 9.8 10.5 11.1 11.6 12.9 14.3 12.8 nan nan nan nan nan nan nan nan 26.4 nan 24.4 27.2 24.0 20.5 18.0 17.1 15.4 15.6 15.1 14.0 13.5 14.8 15.0 18.5 19.5 21.1 19.2 18.4 15.7 18.4 17.2
11.0 9.9 10.9 11.5 11.7 12.2 12.7 12.0 12.6 12.9 13.8 16.0 15.2 15.3 8.5 nan nan nan nan 20.2 27.3 25.3 25.5 26.1 23.8 23.0 20.9 21.3 20.0 20.9 18.7 19.1 18.9 22.2 21.9 23.3 21.6 22.1 21.0 16.5 14.3 9.2 10.3
14.1 5.8 11.0 16.3 15.4 14.3 12.1 14.2 13.5 13.9 14.8 16.3 16.4 15.8 20.9 18.2 24.5 25.9 22.8 28.0 27.7 26.0 24.2 25.7 26.1 27.9 27.7 25.7 25.3 23.9 23.7 24.0 22.4 23.5 23.5 22.2 20.7 21.4 16.5 20.3 18.2 16.6 17.2
19.0 17.6 4.2 17.1 19.4 19.8 20.1 17.8 15.3 17.7 16.3 17.8 15.8 15.4 nan 21.1 21.9 23.6 26.2 25.2 27.4 29.3 26.0 27.3 28.3 32.8 32.8 34.7 30.5 29.3 28.0 20.1 23.2 25.1 26.1 25.4 24.7 28.5 19.5 14.5 18.3 19.3 19.3
19.0 19.7 19.9 21.8 17.7 18.1 19.7 16.1 17.1 17.2 16.9 16.0 15.2 15.7 nan 17.6 19.9 20.6 20.8 25.0 27.5 27.3 29.5 32.9 32.1 34.0 31.6 30.1 28.1 26.4 23.3 26.0 27.3 26.7 23.3 23.9 26.6 24.0 23.3 17.8 18.1 16.6 20.1
17.8 16.8 18.1 19.0 18.8 8.4 22.0 23.8 21.2 20.1 18.2 17.9 16.2 15.5 17.3 21.0 18.4 18.1 24.3 26.8 22.9 22.0 24.0 25.1 23.7 23.3 21.7 24.1 21.9 21.2 22.8 25.0 25.5 30.8 23.9 24.6 24.2 26.5 24.1 21.9 19.9 21.4 20.2
19.3 19.5 18.9 20.3 18.3 16.6 18.2 18.9 16.9 6.9 17.1 17.8 25.4 21.5 14.3 17.6 23.3 19.2 19.4 22.1 18.5 27.7 21.3 22.3 19.4 19.1 20.2 27.4 32.4 31.9 33.8 35.0 34.4 32.2 29.7 22.7 22.6 18.8 20.3 22.0 18.0 16.9 15.3
19.1 16.9 16.7 15.7 21.0 17.5 16.7 19.1 13.7 17.8 20.4 16.7 19.7 15.3 16.1 15.6 16.9 21.9 20.6 17.3 19.1 17.7 15.5 15.6 15.7 16.0 16.4 16.8 22.3 27.2 26.3 4.5 18.4 4.9 26.9 20.5 23.5 23.8 23.3 19.9 18.3 16.1 14.1
14.2 14.8 15.3 15.7 15.6 16.8 17.3 17.0 17.4 14.6 17.8 18.8 18.0 18.2 16.1 16.1 15.8 18.3 17.2 17.3 14.5 14.9 15.1 16.0 15.5 13.7 13.0 14.8 15.8 6.8 4.2 3.7 22.5 4.4 24.0 20.1 22.5 21.5 21.5 21.6 20.2 18.7 15.3
Water_Equivalent
0.00 0.00 0.00 0.00 0.00 0.00 0.00 0.00 0.00 0.00 0.00 0.00 0.00 0.00 0.00 0.00 0.00 0.00 0.00 0.00 0.00 0.00 0.00 0.00 0.00 0.00 0.00 0.00 0.00 0.00 0.00 0.00 0.00 0.01 0.00 0.00 0.00 0.00 0.00 0.00 0.00 0.00 0.00
0.00 0.00 0.00 0.00 0.00 0.00 0.00 0.00 0.00 0.00 0.00 0.00 0.00 0.00 0.00 0.00 0.00 0.00 0.00 0.00 0.00 0.00 0.00 0.00 0.00 0.00 0.00 0.00 0.00 0.00 0.00 0.00 0.00 0.00 0.00 0.08 0.04 0.00 0.00 0.00 0.00 0.00 0.00
0.00 0.00 0.00 0.00 0.00 0.00 0.00 0.00 0.00 0.00 0.00 0.00 0.00 0.00 0.00 0.00 0.00 0.00 0.00 0.00 0.00 0.00 0.00 0.00 0.00 0.00 0.00 0.00 0.00 0.00 0.00 0.00 0.00 0.02 0.07 0.08 0.08 0.04 0.04 0.03 0.01 0.01 0.00
0.00 0.00 0.00 0.00 0.00 0.00 0.00 0.00 0.00 0.00 0.00 0.00 0.00 0.00 0.00 0.00 0.00 0.00 0.00 0.00 0.00 0.00 0.00 0.00 0.00 0.00 0.00 0.00 0.00 0.00 0.00 0.03 0.03 0.07 0.09 0.09 0.10 0.14 0.14 0.17 0.23 0.18 0.19
0.00 0.00 0.00 0.00 0.00 0.00 0.00 0.00 0.00 0.00 0.00 0.00 0.00 0.00 0.00 0.00 0.00 0.00 0.00 0.00 0.00 0.00 0.00 0.00 0.00 0.00 nan nan 0.02 0.01 0.01 0.03 0.11 0.15 0.16 0.15 0.13 0.17 0.23 0.21 0.38 0.27 0.18
0.00 0.00 0.00 0.00 0.00 0.00 0.00 0.01 0.01 0.01 0.00 0.01 0.01 0.01 0.00 0.00 nan nan 0.00 0.00 0.00 0.00 0.00 0.00 0.00 0.01 0.00 nan nan nan nan 0.01 0.02 0.30 0.19 0.14 0.04 0.24 0.35 0.43 0.50 0.60 0.66
0.00 0.01 0.01 0.01 0.02 0.01 0.01 0.02 0.01 0.01 0.01 0.02 0.03 0.02 0.02 0.01 nan nan nan 0.02 0.01 0.00 0.01 0.01 0.01 0.00 0.02 0.01 nan nan nan nan nan 0.01 0.04 0.09 0.17 0.08 0.17 0.39 0.31 0.58 0.43
0.02 0.02 0.03 0.04 0.07 0.08 0.08 0.07 0.06 0.04 0.04 0.04 0.03 0.01 0.01 0.00 nan nan nan 0.00 0.00 0.01 0.01 0.01 0.02 0.02 0.02 0.02 0.02 0.03 0.04 0.03 0.03 0.02 0.03 0.04 0.04 0.03 0.03 0.06 0.14 0.26 0.45
0.07 0.08 0.08 0.08 0.10 0.08 0.10 0.07 0.08 0.08 0.06 0.05 0.04 0.09 0.08 0.05 nan nan 0.01 0.02 0.03 0.03 0.02 0.02 0.02 0.03 nan nan 0.07 0.28 0.44 0.28 nan nan nan nan nan nan nan 0.64 2.01 2.34 1.28
0.07 0.08 0.07 0.08 0.14 0.12 0.11 0.15 0.16 0.14 0.14 0.31 0.12 0.15 0.05 0.17 nan nan nan 0.35 0.21 0.31 0.07 0.04 0.20 0.04 nan nan 0.13 0.44 0.92 0.36 0.37 0.67 0.35 0.08 nan nan nan 0.07 0.57 1.94 1.28
0.19 0.16 0.17 0.16 0.25 0.14 0.17 0.16 0.25 0.32 0.20 0.37 0.39 0.27 0.29 0.14 0.06 nan nan 0.17 0.48 0.72 0.72 0.54 0.37 nan nan nan nan 0.52 0.62 0.37 0.93 0.81 0.76 0.78 0.57 0.46 0.52 0.37 0.18 0.50 1.19
0.24 0.26 0.31 0.40 0.33 0.28 0.60 0.41 0.61 0.52 0.58 0.55 0.59 0.51 0.47 0.18 nan nan nan nan nan 1.19 0.66 0.54 0.44 nan nan nan 0.42 nan nan 0.56 1.40 1.62 1.46 1.22 0.90 0.75 0.52 0.35 0.13 0.16 0.17
0.55 0.77 0.75 0.66 0.62 0.62 0.89 0.62 0.89 0.71 0.88 0.51 0.71 0.67 0.51 0.46 0.47 nan nan nan nan 0.82 0.58 0.51 nan nan nan nan nan nan 0.51 1.17 1.47 1.82 1.28 0.81 0.58 0.45 0.26 0.38 0.24 0.31 0.27
1.01 0.57 0.45 0.58 0.50 0.57 0.73 0.80 1.17 1.00 0.82 0.88 0.99 0.94 0.64 0.66 0.61 0.59 0.89 0.72 0.76 0.96 nan 0.75 nan 0.68 nan nan 0.73 0.69 0.93 1.05 1.20 1.28 1.04 0.65 0.55 0.76 0.97 0.77 1.03 0.97 1.55
0.72 0.41 0.52 0.70 0.79 0.47 0.40 0.74 0.73 0.45 1.02 1.70 1.95 1.35 1.61 1.60 1.29 0.70 1.46 1.76 1.63 1.58 1.52 1.93 1.59 1.09 1.06 0.98 1.18 1.10 0.99 1.13 1.25 1.24 1.33 1.19 1.17 1.23 1.20 1.07 1.19 1.51 1.80
0.45 0.60 0.56 0.57 0.50 0.47 0.55 0.59 nan nan nan nan nan 1.36 1.72 nan nan nan nan nan nan nan 3.01 3.05 1.72 1.50 1.22 1.20 1.34 1.25 1.14 1.12 1.23 1.39 1.46 1.41 1.51 1.36 1.39 1.49 1.46 1.71 1.84
0.81 0.54 0.67 0.60 0.65 0.78 0.88 1.02 1.11 0.93 nan nan nan nan nan nan nan nan nan nan nan nan 4.41 2.52 2.12 1.57 1.48 1.23 1.37 1.28 1.24 1.16 1.05 1.40 1.39 1.53 1.65 1.76 1.82 1.72 1.50 1.44 1.92
0.88 0.93 0.96 0.94 0.94 1.03 1.11 1.17 1.22 1.36 1.51 1.33 nan nan nan nan nan nan nan nan 3.71 nan 3.24 3.32 2.79 2.25 1.80 1.65 1.44 1.43 1.39 1.33 1.30 1.45 1.52 1.99 2.20 2.45 2.22 2.16 1.78 2.16 2.02
1.11 0.99 1.10 1.17 1.20 1.26 1.31 1.19 1.26 1.27 1.34 1.60 1.55 1.58 1.43 nan nan nan nan 2.59 3.45 2.97 2.94 3.03 2.56 2.39 2.03 2.13 1.98 2.17 1.82 1.87 1.83 2.38 2.37 2.63 2.44 2.57 2.47 1.85 1.53 1.36 1.49
1.32 1.39 1.34 1.61 1.44 1.33 1.11 1.31 1.23 1.26 1.32 1.50 1.55 1.47 2.22 2.28 2.98 3.09 2.59 3.51 3.41 3.03 2.70 2.91 2.93 3.22 3.22 2.94 2.86 2.64 2.61 2.66 2.39 2.55 2.55 2.43 2.29 2.47 1.69 2.37 2.08 1.76 1.97
1.78 1.57 1.39 1.49 1.78 1.81 1.85 1.54 1.26 1.59 1.43 1.64 1.38 1.44 nan 2.18 2.26 2.51 2.92 2.70 3.13 3.39 2.79 3.04 3.15 3.99 4.09 4.49 3.69 3.50 3.22 2.01 2.50 2.78 2.98 2.91 2.81 3.48 2.15 1.40 2.05 2.25 2.21
1.76 1.85 1.86 2.02 1.48 1.53 1.76 1.30 1.43 1.44 1.40 1.28 1.16 1.29 nan 1.53 1.79 1.88 1.98 2.64 3.09 3.05 3.43 4.01 3.91 4.31 3.84 3.56 3.19 2.96 2.44 2.92 3.20 2.98 2.38 2.50 2.99 2.62 2.61 1.80 1.90 1.68 2.28
1.50 1.33 1.47 1.51 1.50 1.60 1.82 2.08 1.79 1.70 1.51 1.59 1.41 1.33 1.53 2.07 1.72 1.64 2.55 2.86 2.25 2.10 2.43 2.59 2.42 2.37 2.21 2.59 2.28 2.20 2.37 2.71 2.82 3.80 2.50 2.64 2.55 3.01 2.73 2.41 2.15 2.38 2.27
1.48 1.53 1.48 1.82 1.58 1.34 1.58 1.67 1.43 1.59 1.50 1.61 2.65 2.12 1.21 1.60 2.39 1.73 1.83 2.21 1.77 3.19 2.20 2.37 1.91 1.88 2.11 3.32 4.30 4.22 4.60 4.86 4.61 4.18 3.70 2.38 2.37 2.11 2.07 2.47 1.94 1.90 1.56
1.64 1.38 1.39 1.28 2.01 1.55 1.45 1.78 1.17 1.69 2.04 1.57 2.01 1.39 1.43 1.34 1.53 2.31 2.13 1.69 1.94 1.78 1.50 1.50 1.56 1.62 1.67 1.77 2.57 3.41 3.64 1.49 2.67 1.63 3.17 2.11 2.57 2.62 2.50 2.12 1.97 1.65 1.45
1.20 1.27 1.32 1.38 1.35 1.53 1.62 1.59 1.65 1.28 1.70 1.83 1.70 1.73 1.46 1.46 1.47 1.84 1.69 1.71 1.35 1.42 1.48 1.63 1.60 1.38 1.30 1.50 1.63 1.71 1.39 1.23 2.83 1.44 2.59 2.02 2.34 2.13 2.09 2.13 1.95 1.86 1.49
SL_Ratio
nan nan nan nan nan nan nan nan nan nan nan nan nan nan nan nan nan nan nan nan nan nan nan nan nan nan nan nan nan nan nan nan 7.5 3.1 nan nan nan nan nan nan nan nan nan
nan nan nan nan nan nan nan nan nan nan nan nan nan nan nan nan nan nan nan nan nan nan nan nan nan nan nan nan nan nan nan nan 10.0 6.7 3.0 3.0 3.0 nan nan nan nan nan nan
nan nan nan nan nan nan nan nan nan nan nan nan nan nan nan nan nan nan nan nan nan nan nan nan nan nan nan nan nan nan nan nan 0.0 3.1 2.8 2.7 2.9 2.5 2.5 2.6 2.6 2.5 nan
nan nan nan nan nan nan nan nan nan nan nan nan nan nan nan nan nan nan nan nan nan nan nan nan nan nan 10.0 5.0 5.0 6.7 10.0 2.6 2.7 2.6 2.5 2.7 2.7 2.7 2.5 2.7 3.5 2.9 2.8
nan nan nan nan nan nan nan nan nan nan nan nan nan nan nan nan nan nan nan nan nan nan nan nan nan nan nan nan 2.9 4.0 4.1 2.9 2.6 2.7 2.7 2.8 2.9 3.6 3.4 3.1 3.4 3.5 3.6
nan nan 0.0 0.0 2.7 2.9 1.7 2.6 2.4 2.5 2.7 2.5 2.7 2.9 2.9 nan nan nan 7.5 6.7 nan 0.0 3.3 1.4 0.0 2.6 3.8 nan nan nan nan 5.7 4.3 3.0 3.1 3.2 3.2 3.0 3.1 3.7 4.0 4.9 5.1
3.6 3.6 3.9 3.9 3.7 3.2 2.8 2.7 2.8 3.9 4.8 5.6 6.5 6.0 5.1 6.0 nan nan nan 2.5 2.5 nan 2.6 2.4 2.8 0.0 2.4 3.2 nan nan nan nan nan 4.6 4.0 3.6 4.4 4.9 4.3 4.1 4.2 4.1 4.0
5.0 4.3 4.6 5.4 6.3 7.2 7.2 6.9 6.6 6.2 6.0 6.5 5.1 4.0 3.2 3.1 nan nan nan 2.5 2.5 2.4 2.6 2.4 2.5 2.7 2.7 3.7 3.6 2.5 2.5 2.5 2.6 2.6 2.8 2.8 3.5 4.1 4.2 4.9 4.8 4.4 4.3
6.7 8.5 8.5 7.6 6.5 7.1 5.9 6.9 7.3 6.6 5.9 4.0 3.6 3.6 3.4 3.1 nan nan 2.6 2.7 2.8 2.9 2.7 2.5 2.7 3.3 nan nan 3.4 3.2 3.2 2.9 nan nan nan nan nan nan nan 3.2 3.8 4.2 4.8
9.6 9.4 8.6 7.5 6.3 7.0 7.8 6.7 6.8 5.7 5.8 4.7 4.5 3.7 3.4 3.1 nan nan nan 2.9 3.3 3.5 3.4 3.1 3.0 3.1 nan nan 4.0 3.5 4.1 4.0 3.2 3.0 3.0 2.9 nan nan nan 3.3 3.6 4.5 5.1
9.7 9.6 8.8 8.4 6.5 7.6 6.4 6.5 5.5 4.8 5.3 4.4 4.8 4.5 3.8 3.2 3.0 nan nan 3.1 3.4 3.8 3.8 3.9 3.4 nan nan nan nan 3.5 4.3 3.4 3.1 3.3 3.4 3.4 3.5 3.6 3.7 3.5 3.8 3.9 5.1
8.6 8.7 8.2 6.3 6.2 6.0 4.6 5.3 4.7 4.9 5.0 5.3 4.8 5.1 4.7 4.7 nan nan nan nan nan 3.8 4.1 3.9 3.7 nan nan nan 3.1 nan nan 3.1 3.4 3.6 4.6 5.2 5.2 5.3 5.1 5.3 5.4 4.7 4.6
7.8 6.9 6.6 6.3 5.2 4.6 4.2 5.1 5.1 4.5 5.2 5.8 5.5 5.6 5.7 5.5 4.2 nan nan nan nan 3.8 3.7 4.1 nan nan nan nan nan nan 3.0 4.0 4.1 5.6 6.2 6.2 6.2 6.3 6.4 6.3 6.3 5.8 5.7
6.7 7.6 7.9 7.0 6.4 6.1 5.0 4.8 4.8 5.2 5.4 5.3 5.7 6.3 6.5 6.6 5.6 4.8 4.0 3.1 3.3 3.9 nan 4.0 nan 4.8 nan nan 4.6 5.3 6.0 6.0 6.7 7.3 8.1 7.8 6.3 6.4 6.7 6.4 7.4 7.3 7.1
8.2 10.4 8.7 7.0 6.5 8.6 8.4 6.1 6.8 6.5 5.8 5.9 5.4 5.3 6.7 7.2 6.5 5.3 5.1 5.4 4.6 4.5 4.0 5.4 6.0 6.5 7.1 7.3 7.3 7.0 6.7 6.7 7.3 7.2 7.6 7.9 7.9 7.4 7.8 7.1 7.2 7.3 8.0
9.9 9.4 8.0 8.1 8.3 8.4 9.0 8.6 nan nan nan nan nan 5.6 5.2 nan nan nan nan nan nan nan 6.0 6.8 8.0 8.2 8.9 9.2 9.3 9.5 9.3 8.1 8.4 8.3 8.1 8.0 8.2 8.4 8.7 8.3 8.0 8.3 8.8
8.2 9.7 9.4 8.6 9.5 9.2 9.0 9.1 9.2 8.4 nan nan nan nan nan nan nan nan nan nan nan nan 6.5 7.7 8.9 9.4 9.9 10.4 10.2 10.4 10.4 10.2 10.5 9.4 9.4 9.3 9.0 8.8 8.6 8.8 8.8 8.8 8.4
8.9 3.0 9.3 9.5 9.5 9.5 9.4 9.5 9.5 9.5 9.5 9.6 nan nan nan nan nan nan nan nan 7.1 nan 7.5 8.2 8.6 9.1 10.0 10.4 10.7 10.9 10.8 10.5 10.4 10.2 9.9 9.3 8.9 8.6 8.6 8.5 8.8 8.5 8.5
9.9 10.0 9.9 9.9 9.8 9.7 9.7 10.1 10.0 10.2 10.3 10.0 9.8 9.7 5.9 nan nan nan nan 7.8 7.9 8.5 8.7 8.6 9.3 9.6 10.3 10.0 10.1 9.6 10.3 10.2 10.3 9.3 9.2 8.9 8.9 8.6 8.5 8.9 9.3 6.7 6.9
10.7 4.2 8.2 10.2 10.7 10.7 11.0 10.9 11.0 11.0 11.2 10.9 10.6 10.7 9.4 8.0 8.2 8.4 8.8 8.0 8.1 8.6 9.0 8.8 8.9 8.7 8.6 8.8 8.8 9.1 9.1 9.0 9.4 9.2 9.2 9.1 9.0 8.7 9.8 8.5 8.8 9.5 8.7
10.7 11.2 3.0 11.5 10.9 10.9 10.9 11.5 12.1 11.2 11.4 10.9 11.5 10.7 nan 9.7 9.7 9.4 9.0 9.3 8.8 8.6 9.3 9.0 9.0 8.2 8.0 7.7 8.3 8.4 8.7 10.0 9.3 9.0 8.7 8.8 8.8 8.2 9.1 10.3 8.9 8.6 8.7
10.8 10.7 10.7 10.8 12.0 11.8 11.2 12.4 12.0 11.9 12.1 12.5 13.1 12.1 nan 11.5 11.1 10.9 10.5 9.5 8.9 8.9 8.6 8.2 8.2 7.9 8.2 8.4 8.8 8.9 9.6 8.9 8.5 8.9 9.8 9.5 8.9 9.2 8.9 9.8 9.5 9.9 8.8
11.9 12.7 12.4 12.5 12.5 5.3 12.1 11.5 11.9 11.8 12.1 11.3 11.5 11.7 11.3 10.2 10.7 11.0 9.5 9.4 10.2 10.4 9.9 9.7 9.8 9.8 9.8 9.3 9.6 9.6 9.6 9.2 9.0 8.1 9.6 9.3 9.5 8.8 8.9 9.1 9.3 9.0 8.9
13.0 12.8 12.7 11.1 11.6 12.4 11.6 11.3 11.9 4.3 11.4 11.1 9.6 10.1 11.8 11.0 9.8 11.1 10.6 10.0 10.4 8.7 9.7 9.4 10.1 10.2 9.6 8.2 7.5 7.6 7.3 7.2 7.5 7.7 8.0 9.5 9.5 8.9 9.8 8.9 9.3 8.9 9.8
11.7 12.3 12.0 12.2 10.4 11.3 11.5 10.7 11.7 10.5 10.0 10.6 9.8 11.0 11.2 11.6 11.0 9.5 9.7 10.3 9.9 10.0 10.3 10.4 10.1 9.9 9.8 9.5 8.7 8.0 7.2 3.0 6.9 3.0 8.5 9.7 9.1 9.1 9.3 9.4 9.3 9.8 9.7
11.9 11.7 11.6 11.4 11.5 11.0 10.7 10.7 10.5 11.4 10.5 10.3 10.6 10.5 11.0 11.0 10.8 9.9 10.2 10.2 10.7 10.5 10.2 9.8 9.7 9.9 10.0 9.8 9.7 4.0 3.0 3.0 7.9 3.0 9.3 10.0 9.6 10.1 10.3 10.2 10.3 10.1 10.3